Flag for Malaysia Weather past 2 weeks in Kuching, Malaysia

Now
82 °F

Partly sunny.


Feels Like: 89 °F
Forecast: 75 / 85 °F
Wind: 1 mph from West

Location: Kuching Airport

Current Time: Oct 26, 2014 at 9:51:47 AM

Latest Report: Oct 26, 2014 at 9:30 AM


Visibility: N/A

Pressure: 29.92 "Hg

Humidity: 79%

Dew point: 75 °F

Location of KuchingLocation

Historic Weather in Kuching — Graph

°F

Kuching temperature yesterday

Maximum temperature yesterday: 91 °F (at 1:00 PM)
Minimum temperature yesterday: 75 °F (at 3:00 AM)
Average temperature yesterday: 81 °F

Past Weeks' High & Low Weather Summary

 TemperatureHumidityPressure
High93 °F (Oct 13, 1:30 PM)100% (Oct 12, 5:00 AM)29.92 "Hg (Oct 12, 5:00 AM)
Low73 °F (Oct 11, 4:00 PM)49% (Oct 13, 1:30 PM)29.68 "Hg (Oct 17, 4:30 PM)
Average80 °F83%29.83 "Hg
* Reported Oct 11 8:00 AM — Oct 26 8:30 AM, Kuching, Weather by CustomWeather, © 2014

Note: Actual official high and low records may vary slightly from our data, if they occured in-between our weather recording intervals... More about our weather records

Advertising

Kuching weather history for previous 24 hours

 ConditionsComfort  
Time TempWeatherWind HumidityBarometerVisibility
8:30 AM
Oct 26
79 °FPartly sunny.5 mph84%29.92 "HgN/A
8:00 AM77 °FPartly sunny.3 mph89%29.92 "HgN/A
7:30 AM75 °FPartly sunny.2 mph89%29.89 "HgN/A
7:00 AM75 °FPartly sunny.3 mph89%29.89 "HgN/A
6:30 AM75 °FPartly sunny.2 mph89%29.86 "HgN/A
6:00 AM75 °FPassing clouds.1 mph89%29.86 "Hg5 mi
5:30 AM75 °FPartly cloudy.2 mph89%29.86 "Hg5 mi
5:00 AM75 °FPartly cloudy.2 mph89%29.86 "Hg5 mi
4:30 AM75 °FPartly cloudy.2 mph89%29.86 "Hg4 mi
4:00 AM75 °FPartly cloudy.3 mph89%29.83 "Hg5 mi
3:30 AM77 °FPartly cloudy.5 mph83%29.86 "Hg5 mi
3:00 AM75 °FPartly cloudy.3 mph89%29.86 "Hg5 mi
2:30 AM75 °FPartly cloudy.5 mph94%29.86 "HgN/A
2:00 AM75 °FPartly cloudy.3 mph94%29.86 "HgN/A
1:30 AM77 °FPartly cloudy.2 mph89%29.86 "HgN/A
1:00 AM75 °FPartly cloudy.2 mph94%29.86 "HgN/A
12:30 AM77 °FPartly cloudy.2 mph89%29.86 "HgN/A
12:00 AM77 °FPartly cloudy.2 mph89%29.86 "HgN/A
11:30 PM
Oct 25
77 °FPassing clouds.2 mph89%29.89 "HgN/A
11:00 PM77 °FPassing clouds.2 mph89%29.89 "HgN/A
10:30 PM77 °FPassing clouds.3 mph89%29.89 "HgN/A
10:00 PM77 °FPassing clouds.3 mph94%29.89 "HgN/A
9:30 PM79 °FPassing clouds.No wind89%29.89 "HgN/A
9:00 PM79 °FPassing clouds.2 mph89%29.86 "HgN/A
8:30 PM79 °FPassing clouds.2 mph89%29.86 "HgN/A
8:00 PM79 °FPassing clouds.5 mph89%29.86 "HgN/A
7:30 PM79 °FPassing clouds.3 mph89%29.86 "HgN/A
7:00 PM81 °FPartly cloudy.6 mph84%29.86 "HgN/A
6:30 PM81 °FPartly cloudy.5 mph84%29.83 "HgN/A
6:00 PM81 °FBroken clouds.5 mph84%29.83 "HgN/A
5:30 PM82 °FBroken clouds.9 mph79%29.80 "HgN/A
5:00 PM86 °FBroken clouds.9 mph70%29.80 "HgN/A
4:30 PM88 °FBroken clouds.9 mph66%29.80 "HgN/A
4:00 PM88 °FBroken clouds.10 mph62%29.80 "HgN/A
3:30 PM90 °FBroken clouds.8 mph55%29.80 "HgN/A
3:00 PM90 °FBroken clouds.9 mph63%29.80 "HgN/A
2:30 PM91 °FBroken clouds.7 mph56%29.80 "HgN/A
2:00 PM91 °FPartly sunny.8 mph52%29.83 "HgN/A
1:30 PM91 °FPartly sunny.6 mph59%29.83 "HgN/A
1:00 PM91 °FPartly sunny.5 mph63%29.86 "HgN/A
12:30 PM90 °FPartly sunny.7 mph63%29.86 "HgN/A
12:00 PM90 °FPartly sunny.5 mph67%29.89 "HgN/A
11:30 AM90 °FPartly sunny.3 mph67%29.89 "HgN/A
11:00 AM88 °FPartly sunny.6 mph70%29.92 "HgN/A
10:30 AM88 °FBroken clouds.6 mph70%29.92 "HgN/A
10:00 AM86 °FScattered clouds.5 mph70%29.89 "HgN/A
9:30 AM84 °FScattered clouds.5 mph74%29.92 "HgN/A
9:00 AM82 °FScattered clouds.6 mph79%29.92 "HgN/A
Weather by CustomWeather, © 2014

See weather overviewHow to use our weather pages